Year,Month,Day,Hour,Minute,Value (Times are PST for temperature in C)
2017,09,28,00,00,12.30
2017,09,28,00,01,12.30
2017,09,28,00,02,12.20
2017,09,28,00,03,12.20
2017,09,28,00,04,12.20
2017,09,28,00,05,12.10
2017,09,28,00,06,12.10
2017,09,28,00,07,12.00
2017,09,28,00,08,12.00
2017,09,28,00,09,12.00
2017,09,28,00,10,12.00
2017,09,28,00,11,12.10
2017,09,28,00,12,12.10
2017,09,28,00,13,12.10
2017,09,28,00,14,12.10
2017,09,28,00,15,12.10
2017,09,28,00,16,12.10
2017,09,28,00,17,12.10
2017,09,28,00,18,12.10
2017,09,28,00,19,12.00
2017,09,28,00,20,12.00
2017,09,28,00,21,12.00
2017,09,28,00,22,12.00
2017,09,28,00,23,12.00
2017,09,28,00,24,12.00
2017,09,28,00,25,12.00
2017,09,28,00,26,11.90
2017,09,28,00,27,11.90
2017,09,28,00,28,11.90
2017,09,28,00,29,11.90
2017,09,28,00,30,11.80
2017,09,28,00,31,11.80
2017,09,28,00,32,11.80
2017,09,28,00,33,11.80
2017,09,28,00,34,11.80
2017,09,28,00,35,11.80
2017,09,28,00,36,11.80
2017,09,28,00,37,11.80
2017,09,28,00,38,11.80
2017,09,28,00,39,11.90
2017,09,28,00,40,11.90
2017,09,28,00,41,11.90
2017,09,28,00,42,11.80
2017,09,28,00,43,11.80
2017,09,28,00,44,11.80
2017,09,28,00,45,11.80
2017,09,28,00,46,11.80
2017,09,28,00,47,11.80
2017,09,28,00,48,11.80
2017,09,28,00,49,11.80
2017,09,28,00,50,11.80
2017,09,28,00,51,11.80
2017,09,28,00,52,11.80
2017,09,28,00,53,11.80
2017,09,28,00,54,11.80
2017,09,28,00,55,11.90
2017,09,28,00,56,11.90
2017,09,28,00,57,11.90
2017,09,28,00,58,12.00
2017,09,28,00,59,12.00
2017,09,28,01,00,12.00
2017,09,28,01,01,12.00
2017,09,28,01,02,12.00
2017,09,28,01,03,12.00
2017,09,28,01,04,12.00
2017,09,28,01,05,12.10
2017,09,28,01,06,12.10
2017,09,28,01,07,12.10
2017,09,28,01,08,12.10
2017,09,28,01,09,12.10
2017,09,28,01,10,12.10
2017,09,28,01,11,12.00
2017,09,28,01,12,12.00
2017,09,28,01,13,12.00
2017,09,28,01,14,11.90
2017,09,28,01,15,11.90
2017,09,28,01,16,11.90
2017,09,28,01,17,11.90
2017,09,28,01,18,11.90
2017,09,28,01,19,11.90
2017,09,28,01,20,12.00
2017,09,28,01,21,12.00
2017,09,28,01,22,12.00
2017,09,28,01,23,12.00
2017,09,28,01,24,12.10
2017,09,28,01,25,12.20
2017,09,28,01,26,12.20
2017,09,28,01,27,12.30
2017,09,28,01,28,12.30
2017,09,28,01,29,12.30
2017,09,28,01,30,12.40
2017,09,28,01,31,12.40
2017,09,28,01,32,12.40
2017,09,28,01,33,12.40
2017,09,28,01,34,12.40
2017,09,28,01,35,12.30
2017,09,28,01,36,12.30
2017,09,28,01,37,12.30
2017,09,28,01,38,12.30
2017,09,28,01,39,12.20
2017,09,28,01,40,12.20
2017,09,28,01,41,12.20
2017,09,28,01,42,12.20
2017,09,28,01,43,12.20
2017,09,28,01,44,12.10
2017,09,28,01,45,12.10
2017,09,28,01,46,12.10
2017,09,28,01,47,12.10
2017,09,28,01,48,12.10
2017,09,28,01,49,12.10
2017,09,28,01,50,12.10
2017,09,28,01,51,12.20
2017,09,28,01,52,12.20
2017,09,28,01,53,12.20
2017,09,28,01,54,12.20
2017,09,28,01,55,12.20
2017,09,28,01,56,12.20
2017,09,28,01,57,12.10
2017,09,28,01,58,12.10
2017,09,28,01,59,12.10
2017,09,28,02,00,12.10
2017,09,28,02,01,12.10
2017,09,28,02,02,12.10
2017,09,28,02,03,12.10
2017,09,28,02,04,12.10
2017,09,28,02,05,12.10
2017,09,28,02,06,12.20
2017,09,28,02,07,12.20
2017,09,28,02,08,12.20
2017,09,28,02,09,12.10
2017,09,28,02,10,12.10
2017,09,28,02,11,12.10
2017,09,28,02,12,12.00
2017,09,28,02,13,12.00
2017,09,28,02,14,12.00
2017,09,28,02,15,12.00
2017,09,28,02,16,12.00
2017,09,28,02,17,12.00
2017,09,28,02,18,12.00
2017,09,28,02,19,12.00
2017,09,28,02,20,12.00
2017,09,28,02,21,12.00
2017,09,28,02,22,12.00
2017,09,28,02,23,12.00
2017,09,28,02,24,12.00
2017,09,28,02,25,12.00
2017,09,28,02,26,12.00
2017,09,28,02,27,12.00
2017,09,28,02,28,12.00
2017,09,28,02,29,12.00
2017,09,28,02,30,12.00
2017,09,28,02,31,12.00
2017,09,28,02,32,12.00
2017,09,28,02,33,12.00
2017,09,28,02,34,12.00
2017,09,28,02,35,12.00
2017,09,28,02,36,12.00
2017,09,28,02,37,12.00
2017,09,28,02,38,12.00
2017,09,28,02,39,12.00
2017,09,28,02,40,12.00
2017,09,28,02,41,12.00
2017,09,28,02,42,12.00
2017,09,28,02,43,12.00
2017,09,28,02,44,12.00
2017,09,28,02,45,12.00
2017,09,28,02,46,12.00
2017,09,28,02,47,12.00
2017,09,28,02,48,11.90
2017,09,28,02,49,11.90
2017,09,28,02,50,12.00
2017,09,28,02,51,12.00
2017,09,28,02,52,12.00
2017,09,28,02,53,12.00
2017,09,28,02,54,12.00
2017,09,28,02,55,12.00
2017,09,28,02,56,12.00
2017,09,28,02,57,12.00
2017,09,28,02,58,11.90
2017,09,28,02,59,11.90
2017,09,28,03,00,11.90
2017,09,28,03,01,11.90
2017,09,28,03,02,11.90
2017,09,28,03,03,11.90
2017,09,28,03,04,11.90
2017,09,28,03,05,11.90
2017,09,28,03,06,11.90
2017,09,28,03,07,11.90
2017,09,28,03,08,11.90
2017,09,28,03,09,11.90
2017,09,28,03,10,11.80
2017,09,28,03,11,11.80
2017,09,28,03,12,11.80
2017,09,28,03,13,11.80
2017,09,28,03,14,11.80
2017,09,28,03,15,11.80
2017,09,28,03,16,11.80
2017,09,28,03,17,11.80
2017,09,28,03,18,11.80
2017,09,28,03,19,11.80
2017,09,28,03,20,11.80
2017,09,28,03,21,11.80
2017,09,28,03,22,11.80
2017,09,28,03,23,11.80
2017,09,28,03,24,11.80
2017,09,28,03,25,11.80
2017,09,28,03,26,11.80
2017,09,28,03,27,11.80
2017,09,28,03,28,11.80
2017,09,28,03,29,11.80
2017,09,28,03,30,11.80
2017,09,28,03,31,11.80
2017,09,28,03,32,11.80
2017,09,28,03,33,11.80
2017,09,28,03,34,11.80
2017,09,28,03,35,11.80
2017,09,28,03,36,11.80
2017,09,28,03,37,11.80
2017,09,28,03,38,11.80
2017,09,28,03,39,11.80
2017,09,28,03,40,11.80
2017,09,28,03,41,11.80
2017,09,28,03,42,11.80
2017,09,28,03,43,11.90
2017,09,28,03,44,11.90
2017,09,28,03,45,11.90
2017,09,28,03,46,11.90
2017,09,28,03,47,11.90
2017,09,28,03,48,11.80
2017,09,28,03,49,11.80
2017,09,28,03,50,11.80
2017,09,28,03,51,11.80
2017,09,28,03,52,11.80
2017,09,28,03,53,11.70
2017,09,28,03,54,11.70
2017,09,28,03,55,11.70
2017,09,28,03,56,11.60
2017,09,28,03,57,11.60
2017,09,28,03,58,11.60
2017,09,28,03,59,11.60
2017,09,28,04,00,11.60
2017,09,28,04,01,11.60
2017,09,28,04,02,11.60
2017,09,28,04,03,11.60
2017,09,28,04,04,11.60
2017,09,28,04,05,11.60
2017,09,28,04,06,11.60
2017,09,28,04,07,11.60
2017,09,28,04,08,11.60
2017,09,28,04,09,11.60
2017,09,28,04,10,11.60
2017,09,28,04,11,11.60
2017,09,28,04,12,11.60
2017,09,28,04,13,11.60
2017,09,28,04,14,11.60
2017,09,28,04,15,11.60
2017,09,28,04,16,11.60
2017,09,28,04,17,11.60
2017,09,28,04,18,11.60
2017,09,28,04,19,11.50
2017,09,28,04,20,11.40
2017,09,28,04,21,11.40
2017,09,28,04,22,11.40
2017,09,28,04,23,11.40
2017,09,28,04,24,11.40
2017,09,28,04,25,11.40
2017,09,28,04,26,11.40
2017,09,28,04,27,11.40
2017,09,28,04,28,11.40
2017,09,28,04,29,11.40
2017,09,28,04,30,11.40
2017,09,28,04,31,11.40
2017,09,28,04,32,11.40
2017,09,28,04,33,11.50
2017,09,28,04,34,11.60
2017,09,28,04,35,11.60
2017,09,28,04,36,11.60
2017,09,28,04,37,11.60
2017,09,28,04,38,11.60
2017,09,28,04,39,11.60
2017,09,28,04,40,11.60
2017,09,28,04,41,11.50
2017,09,28,04,42,11.40
2017,09,28,04,43,11.40
2017,09,28,04,44,11.30
2017,09,28,04,45,11.20
2017,09,28,04,46,11.20
2017,09,28,04,47,11.20
2017,09,28,04,48,11.20
2017,09,28,04,49,11.20
2017,09,28,04,50,11.20
2017,09,28,04,51,11.30
2017,09,28,04,52,11.30
2017,09,28,04,53,11.30
2017,09,28,04,54,11.40
2017,09,28,04,55,11.40
2017,09,28,04,56,11.40
2017,09,28,04,57,11.50
2017,09,28,04,58,11.60
2017,09,28,04,59,11.60
2017,09,28,05,00,11.60
2017,09,28,05,01,11.60
2017,09,28,05,02,11.60
2017,09,28,05,03,11.60
2017,09,28,05,04,11.60
2017,09,28,05,05,11.60
2017,09,28,05,06,11.60
2017,09,28,05,07,11.60
2017,09,28,05,08,11.40
2017,09,28,05,09,11.40
2017,09,28,05,10,11.40
2017,09,28,05,11,11.40
2017,09,28,05,12,11.40
2017,09,28,05,13,11.40
2017,09,28,05,14,11.40
2017,09,28,05,15,11.40
2017,09,28,05,16,11.40
2017,09,28,05,17,11.40
2017,09,28,05,18,11.40
2017,09,28,05,19,11.40
2017,09,28,05,20,11.40
2017,09,28,05,21,11.40
2017,09,28,05,22,11.40
2017,09,28,05,23,11.40
2017,09,28,05,24,11.40
2017,09,28,05,25,11.40
2017,09,28,05,26,11.40
2017,09,28,05,27,11.40
2017,09,28,05,28,11.40
2017,09,28,05,29,11.40
2017,09,28,05,30,11.40
2017,09,28,05,31,11.40
2017,09,28,05,32,11.40
2017,09,28,05,33,11.40
2017,09,28,05,34,11.40
2017,09,28,05,35,11.40
2017,09,28,05,36,11.40
2017,09,28,05,37,11.40
2017,09,28,05,38,11.40
2017,09,28,05,39,11.40
2017,09,28,05,40,11.40
2017,09,28,05,41,11.30
2017,09,28,05,42,11.30
2017,09,28,05,43,11.20
2017,09,28,05,44,11.20
2017,09,28,05,45,11.10
2017,09,28,05,46,11.10
2017,09,28,05,47,11.10
2017,09,28,05,48,11.10
2017,09,28,05,49,11.10
2017,09,28,05,50,11.10
2017,09,28,05,51,11.10
2017,09,28,05,52,11.10
2017,09,28,05,53,11.10
2017,09,28,05,54,11.00
2017,09,28,05,55,10.90
2017,09,28,05,56,10.90
2017,09,28,05,57,10.90
2017,09,28,05,58,10.90
2017,09,28,05,59,10.90
2017,09,28,06,00,10.90
2017,09,28,06,01,10.90
2017,09,28,06,02,10.90
2017,09,28,06,03,10.90
2017,09,28,06,04,10.90
2017,09,28,06,05,10.90
2017,09,28,06,06,10.90
2017,09,28,06,07,10.90
2017,09,28,06,08,10.90
2017,09,28,06,09,10.90
2017,09,28,06,10,10.90
2017,09,28,06,11,10.90
2017,09,28,06,12,10.90
2017,09,28,06,13,10.90
2017,09,28,06,14,10.90
2017,09,28,06,15,10.90
2017,09,28,06,16,10.90
2017,09,28,06,17,10.90
2017,09,28,06,18,10.90
2017,09,28,06,19,10.90
2017,09,28,06,20,10.90
2017,09,28,06,21,10.80
2017,09,28,06,22,10.80
2017,09,28,06,23,10.80
2017,09,28,06,24,10.70
2017,09,28,06,25,10.70
2017,09,28,06,26,10.70
2017,09,28,06,27,10.80
2017,09,28,06,28,10.80
2017,09,28,06,29,10.80
2017,09,28,06,30,10.90
2017,09,28,06,31,10.90
2017,09,28,06,32,10.90
2017,09,28,06,33,10.90
2017,09,28,06,34,11.00
2017,09,28,06,35,11.10
2017,09,28,06,36,11.10
2017,09,28,06,37,11.20
2017,09,28,06,38,11.30
2017,09,28,06,39,11.30
2017,09,28,06,40,11.30
2017,09,28,06,41,11.30
2017,09,28,06,42,11.40
2017,09,28,06,43,11.40
2017,09,28,06,44,11.40
2017,09,28,06,45,11.40
2017,09,28,06,46,11.40
2017,09,28,06,47,11.40
2017,09,28,06,48,11.40
2017,09,28,06,49,11.40
2017,09,28,06,50,11.30
2017,09,28,06,51,11.30
2017,09,28,06,52,11.30
2017,09,28,06,53,11.30
2017,09,28,06,54,11.20
2017,09,28,06,55,11.20
2017,09,28,06,56,11.20
2017,09,28,06,57,11.20
2017,09,28,06,58,11.20
2017,09,28,06,59,11.20
2017,09,28,07,00,11.20
2017,09,28,07,01,11.20
2017,09,28,07,02,11.20
2017,09,28,07,03,11.10
2017,09,28,07,04,11.10
2017,09,28,07,05,11.10
2017,09,28,07,06,11.10
2017,09,28,07,07,11.10
2017,09,28,07,08,11.10
2017,09,28,07,09,11.10
2017,09,28,07,10,11.10
2017,09,28,07,11,11.10
2017,09,28,07,12,11.10
2017,09,28,07,13,11.10
2017,09,28,07,14,11.10
2017,09,28,07,15,11.10
2017,09,28,07,16,11.10
2017,09,28,07,17,11.10
2017,09,28,07,18,11.10
2017,09,28,07,19,11.10
2017,09,28,07,20,11.10
2017,09,28,07,21,11.10
2017,09,28,07,22,11.10
2017,09,28,07,23,11.10
2017,09,28,07,24,11.10
2017,09,28,07,25,11.10
2017,09,28,07,26,11.10
2017,09,28,07,27,11.10
2017,09,28,07,28,11.10
2017,09,28,07,29,11.10
2017,09,28,07,30,11.10
2017,09,28,07,31,11.20
2017,09,28,07,32,11.20
2017,09,28,07,33,11.20
2017,09,28,07,34,11.30
2017,09,28,07,35,11.30
2017,09,28,07,36,11.40
2017,09,28,07,37,11.40
2017,09,28,07,38,11.40
2017,09,28,07,39,11.40
2017,09,28,07,40,11.50
2017,09,28,07,41,11.60
2017,09,28,07,42,11.60
2017,09,28,07,43,11.60
2017,09,28,07,44,11.70
2017,09,28,07,45,11.70
2017,09,28,07,46,11.80
2017,09,28,07,47,11.80
2017,09,28,07,48,11.80
2017,09,28,07,49,11.80
2017,09,28,07,50,11.90
2017,09,28,07,51,11.90
2017,09,28,07,52,12.00
2017,09,28,07,53,12.00
2017,09,28,07,54,12.10
2017,09,28,07,55,12.10
2017,09,28,07,56,12.20
2017,09,28,07,57,12.20
2017,09,28,07,58,12.30
2017,09,28,07,59,12.30
2017,09,28,08,00,12.30
2017,09,28,08,01,12.30
2017,09,28,08,02,12.40
2017,09,28,08,03,12.40
2017,09,28,08,04,12.40
2017,09,28,08,05,12.50
2017,09,28,08,06,12.50
2017,09,28,08,07,12.50
2017,09,28,08,08,12.60
2017,09,28,08,09,12.60
2017,09,28,08,10,12.70
2017,09,28,08,11,12.70
2017,09,28,08,12,12.80
2017,09,28,08,13,12.80
2017,09,28,08,14,12.80
2017,09,28,08,15,12.90
2017,09,28,08,16,12.90
2017,09,28,08,17,13.00
2017,09,28,08,18,13.00
2017,09,28,08,19,13.10
2017,09,28,08,20,13.10
2017,09,28,08,21,13.20
2017,09,28,08,22,13.30
2017,09,28,08,23,13.30
2017,09,28,08,24,13.30
2017,09,28,08,25,13.40
2017,09,28,08,26,13.50
2017,09,28,08,27,13.50
2017,09,28,08,28,13.60
2017,09,28,08,29,13.70
2017,09,28,08,30,13.70
2017,09,28,08,31,13.80
2017,09,28,08,32,13.90
2017,09,28,08,33,14.00
2017,09,28,08,34,14.10
2017,09,28,08,35,14.20
2017,09,28,08,36,14.20
2017,09,28,08,37,14.30
2017,09,28,08,38,14.40
2017,09,28,08,39,14.40
2017,09,28,08,40,14.50
2017,09,28,08,41,14.50
2017,09,28,08,42,14.50
2017,09,28,08,43,14.60
2017,09,28,08,44,14.60
2017,09,28,08,45,14.70
2017,09,28,08,46,14.70
2017,09,28,08,47,14.80
2017,09,28,08,48,14.80
2017,09,28,08,49,14.90
2017,09,28,08,50,14.90
2017,09,28,08,51,15.00
2017,09,28,08,52,15.10
2017,09,28,08,53,15.20
2017,09,28,08,54,15.20
2017,09,28,08,55,15.30
2017,09,28,08,56,15.30
2017,09,28,08,57,15.40
2017,09,28,08,58,15.50
2017,09,28,08,59,15.50
2017,09,28,09,00,15.60
2017,09,28,09,01,15.70
2017,09,28,09,02,15.80
2017,09,28,09,03,15.90
2017,09,28,09,04,16.00
2017,09,28,09,05,16.20
2017,09,28,09,06,16.30
2017,09,28,09,07,16.40
2017,09,28,09,08,16.60
2017,09,28,09,09,16.70
2017,09,28,09,10,16.90
2017,09,28,09,11,17.00
2017,09,28,09,12,17.10
2017,09,28,09,13,17.20
2017,09,28,09,14,17.40
2017,09,28,09,15,17.50
2017,09,28,09,16,17.60
2017,09,28,09,17,17.70
2017,09,28,09,18,17.80
2017,09,28,09,19,18.00
2017,09,28,09,20,18.10
2017,09,28,09,21,18.20
2017,09,28,09,22,18.40
2017,09,28,09,23,18.50
2017,09,28,09,24,18.60
2017,09,28,09,25,18.60
2017,09,28,09,26,18.60
2017,09,28,09,27,18.60
2017,09,28,09,28,18.70
2017,09,28,09,29,18.70
2017,09,28,09,30,18.70
2017,09,28,09,31,18.70
2017,09,28,09,32,18.70
2017,09,28,09,33,18.70
2017,09,28,09,34,19.00
2017,09,28,09,35,19.10
2017,09,28,09,36,19.10
2017,09,28,09,37,19.10
2017,09,28,09,38,19.20
2017,09,28,09,39,19.30
2017,09,28,09,40,19.40
2017,09,28,09,41,19.40
2017,09,28,09,42,19.50
2017,09,28,09,43,19.50
2017,09,28,09,44,19.60
2017,09,28,09,45,19.70
2017,09,28,09,46,19.70
2017,09,28,09,47,19.70
2017,09,28,09,48,19.80
2017,09,28,09,49,19.80
2017,09,28,09,50,19.80
2017,09,28,09,51,19.80
2017,09,28,09,52,19.80
2017,09,28,09,53,19.80
2017,09,28,09,54,19.80
2017,09,28,09,55,19.80
2017,09,28,09,56,19.90
2017,09,28,09,57,19.90
2017,09,28,09,58,19.90
2017,09,28,09,59,19.90
2017,09,28,10,00,19.90
2017,09,28,10,01,20.00
2017,09,28,10,02,20.10
2017,09,28,10,03,20.10
2017,09,28,10,04,20.20
2017,09,28,10,05,20.20
2017,09,28,10,06,20.20
2017,09,28,10,07,20.20
2017,09,28,10,08,20.20
2017,09,28,10,09,20.20
2017,09,28,10,10,20.20
2017,09,28,10,11,20.20
2017,09,28,10,12,20.20
2017,09,28,10,13,20.20
2017,09,28,10,14,20.20
2017,09,28,10,15,20.30
2017,09,28,10,16,20.40
2017,09,28,10,17,20.40
2017,09,28,10,18,20.50
2017,09,28,10,19,20.50
2017,09,28,10,20,20.60
2017,09,28,10,21,20.60
2017,09,28,10,22,20.70
2017,09,28,10,23,20.70
2017,09,28,10,24,20.70
2017,09,28,10,25,20.80
2017,09,28,10,26,20.80
2017,09,28,10,27,20.80
2017,09,28,10,28,20.90
2017,09,28,10,29,21.00
2017,09,28,10,30,21.00
2017,09,28,10,31,21.00
2017,09,28,10,32,21.00
2017,09,28,10,33,21.00
2017,09,28,10,34,21.10
2017,09,28,10,35,21.10
2017,09,28,10,36,21.10
2017,09,28,10,37,21.10
2017,09,28,10,38,21.20
2017,09,28,10,39,21.20
2017,09,28,10,40,21.20
2017,09,28,10,41,21.20
2017,09,28,10,42,21.20
2017,09,28,10,43,21.20
2017,09,28,10,44,21.30
2017,09,28,10,45,21.30
2017,09,28,10,46,21.30
2017,09,28,10,47,21.30
2017,09,28,10,48,21.30
2017,09,28,10,49,21.30
2017,09,28,10,50,21.30
2017,09,28,10,51,21.40
2017,09,28,10,52,21.40
2017,09,28,10,53,21.40
2017,09,28,10,54,21.40
2017,09,28,10,55,21.40
2017,09,28,10,56,21.50
2017,09,28,10,57,21.60
2017,09,28,10,58,21.60
2017,09,28,10,59,21.70
2017,09,28,11,00,21.80
2017,09,28,11,01,21.90
2017,09,28,11,02,21.90
2017,09,28,11,03,21.90
2017,09,28,11,04,22.00
2017,09,28,11,05,22.00
2017,09,28,11,06,22.10
2017,09,28,11,07,22.10
2017,09,28,11,08,22.10
2017,09,28,11,09,22.20
2017,09,28,11,10,22.30
2017,09,28,11,11,22.30
2017,09,28,11,12,22.30
2017,09,28,11,13,22.40
2017,09,28,11,14,22.40
2017,09,28,11,15,22.50
2017,09,28,11,16,22.50
2017,09,28,11,17,22.40
2017,09,28,11,18,22.50
2017,09,28,11,19,22.50
2017,09,28,11,20,22.50
2017,09,28,11,21,22.60
2017,09,28,11,22,22.60
2017,09,28,11,23,22.70
2017,09,28,11,24,22.70
2017,09,28,11,25,22.80
2017,09,28,11,26,22.80
2017,09,28,11,27,22.90
2017,09,28,11,28,22.90
2017,09,28,11,29,23.00
2017,09,28,11,30,23.10
2017,09,28,11,31,23.10
2017,09,28,11,32,23.20
2017,09,28,11,33,23.30
2017,09,28,11,34,23.30
2017,09,28,11,35,23.30
2017,09,28,11,36,23.30
2017,09,28,11,37,23.30
2017,09,28,11,38,23.30
2017,09,28,11,39,23.40
2017,09,28,11,40,23.40
2017,09,28,11,41,23.60
2017,09,28,11,42,23.60
2017,09,28,11,43,23.60
2017,09,28,11,44,23.60
2017,09,28,11,45,23.70
2017,09,28,11,46,23.70
2017,09,28,11,47,23.70
2017,09,28,11,48,23.70
2017,09,28,11,49,23.70
2017,09,28,11,50,23.70
2017,09,28,11,51,23.80
2017,09,28,11,52,23.80
2017,09,28,11,53,23.90
2017,09,28,11,54,24.00
2017,09,28,11,55,24.10
2017,09,28,11,56,24.10
2017,09,28,11,57,24.00
2017,09,28,11,58,23.90
2017,09,28,11,59,23.90
2017,09,28,12,00,23.80
2017,09,28,12,01,23.80
2017,09,28,12,02,23.80
2017,09,28,12,03,23.70
2017,09,28,12,04,23.70
2017,09,28,12,05,23.70
2017,09,28,12,06,23.70
2017,09,28,12,07,23.70
2017,09,28,12,08,23.70
2017,09,28,12,09,23.70
2017,09,28,12,10,23.70
2017,09,28,12,11,23.70
2017,09,28,12,12,23.70
2017,09,28,12,13,23.70
2017,09,28,12,14,23.80
2017,09,28,12,15,23.80
2017,09,28,12,16,23.80
2017,09,28,12,17,23.90
2017,09,28,12,18,23.90
2017,09,28,12,19,23.90
2017,09,28,12,20,24.00
2017,09,28,12,21,24.10
2017,09,28,12,22,24.10
2017,09,28,12,23,24.00
2017,09,28,12,24,24.00
2017,09,28,12,25,24.10
2017,09,28,12,26,24.10
2017,09,28,12,27,24.10
2017,09,28,12,28,24.10
2017,09,28,12,29,24.00
2017,09,28,12,30,23.90
2017,09,28,12,31,23.90
2017,09,28,12,32,24.00
2017,09,28,12,33,24.10
2017,09,28,12,34,24.10
2017,09,28,12,35,24.10
2017,09,28,12,36,24.20
2017,09,28,12,37,24.20
2017,09,28,12,38,24.20
2017,09,28,12,39,24.20
2017,09,28,12,40,24.20
2017,09,28,12,41,24.20
2017,09,28,12,42,24.20
2017,09,28,12,43,24.30
2017,09,28,12,44,24.20
2017,09,28,12,45,24.20
2017,09,28,12,46,24.30
2017,09,28,12,47,24.40
2017,09,28,12,48,24.50
2017,09,28,12,49,24.50
2017,09,28,12,50,24.60
2017,09,28,12,51,24.70
2017,09,28,12,52,24.70
2017,09,28,12,53,24.80
2017,09,28,12,54,24.90
2017,09,28,12,55,24.90
2017,09,28,12,56,24.90
2017,09,28,12,57,24.90
2017,09,28,12,58,24.90
2017,09,28,12,59,24.90
2017,09,28,13,00,24.90
2017,09,28,13,01,25.00
2017,09,28,13,02,25.10
2017,09,28,13,03,25.00
2017,09,28,13,04,25.00
2017,09,28,13,05,25.00
2017,09,28,13,06,24.90
2017,09,28,13,07,24.80
2017,09,28,13,08,24.80
2017,09,28,13,09,24.80
2017,09,28,13,10,24.80
2017,09,28,13,11,24.80
2017,09,28,13,12,24.80
2017,09,28,13,13,24.80
2017,09,28,13,14,24.80
2017,09,28,13,15,24.80
2017,09,28,13,16,24.80
2017,09,28,13,17,24.90
2017,09,28,13,18,24.90
2017,09,28,13,19,25.00
2017,09,28,13,20,25.00
2017,09,28,13,21,25.00
2017,09,28,13,22,25.10
2017,09,28,13,23,25.20
2017,09,28,13,24,25.20
2017,09,28,13,25,25.30
2017,09,28,13,26,25.30
2017,09,28,13,27,25.30
2017,09,28,13,28,25.30
2017,09,28,13,29,25.30
2017,09,28,13,30,25.30
2017,09,28,13,31,25.30
2017,09,28,13,32,25.30
2017,09,28,13,33,25.20
2017,09,28,13,34,25.20
2017,09,28,13,35,25.20
2017,09,28,13,36,25.10
2017,09,28,13,37,25.20
2017,09,28,13,38,25.20
2017,09,28,13,39,25.30
2017,09,28,13,40,25.40
2017,09,28,13,41,25.40
2017,09,28,13,42,25.40
2017,09,28,13,43,25.50
2017,09,28,13,44,25.50
2017,09,28,13,45,25.50
2017,09,28,13,46,25.50
2017,09,28,13,47,25.50
2017,09,28,13,48,25.50
2017,09,28,13,49,25.50
2017,09,28,13,50,25.50
2017,09,28,13,51,25.50
2017,09,28,13,52,25.50
2017,09,28,13,53,25.50
2017,09,28,13,54,25.50
2017,09,28,13,55,25.50
2017,09,28,13,56,25.40
2017,09,28,13,57,25.40
2017,09,28,13,58,25.40
2017,09,28,13,59,25.40
2017,09,28,14,00,25.50
2017,09,28,14,01,25.50
2017,09,28,14,02,25.60
2017,09,28,14,03,25.70
2017,09,28,14,04,25.70
2017,09,28,14,05,25.70
2017,09,28,14,06,25.80
2017,09,28,14,07,25.80
2017,09,28,14,08,25.80
2017,09,28,14,09,25.80
2017,09,28,14,10,25.90
2017,09,28,14,11,25.90
2017,09,28,14,12,25.90
2017,09,28,14,13,25.80
2017,09,28,14,14,25.80
2017,09,28,14,15,25.80
2017,09,28,14,16,25.80
2017,09,28,14,17,25.80
2017,09,28,14,18,25.90
2017,09,28,14,19,25.90
2017,09,28,14,20,25.90
2017,09,28,14,21,25.90
2017,09,28,14,22,26.00
2017,09,28,14,23,26.10
2017,09,28,14,24,26.10
2017,09,28,14,25,26.10
2017,09,28,14,26,26.10
2017,09,28,14,27,26.10
2017,09,28,14,28,26.10
2017,09,28,14,29,26.10
2017,09,28,14,30,26.10
2017,09,28,14,31,26.10
2017,09,28,14,32,26.20
2017,09,28,14,33,26.20
2017,09,28,14,34,26.20
2017,09,28,14,35,26.30
2017,09,28,14,36,26.30
2017,09,28,14,37,26.40
2017,09,28,14,38,26.50
2017,09,28,14,39,26.60
2017,09,28,14,40,26.70
2017,09,28,14,41,26.70
2017,09,28,14,42,26.80
2017,09,28,14,43,26.70
2017,09,28,14,44,26.70
2017,09,28,14,45,26.70
2017,09,28,14,46,26.60
2017,09,28,14,47,26.60
2017,09,28,14,48,26.60
2017,09,28,14,49,26.60
2017,09,28,14,50,26.60
2017,09,28,14,51,26.70
2017,09,28,14,52,26.80
2017,09,28,14,53,26.80
2017,09,28,14,54,26.80
2017,09,28,14,55,26.80
2017,09,28,14,56,26.90
2017,09,28,14,57,26.90
2017,09,28,14,58,26.90
2017,09,28,14,59,26.90
2017,09,28,15,00,26.80
2017,09,28,15,01,26.70
2017,09,28,15,02,26.60
2017,09,28,15,03,26.60
2017,09,28,15,04,26.60
2017,09,28,15,05,26.60
2017,09,28,15,06,26.60
2017,09,28,15,07,26.60
2017,09,28,15,08,26.60
2017,09,28,15,09,26.60
2017,09,28,15,10,26.60
2017,09,28,15,11,26.60
2017,09,28,15,12,26.60
2017,09,28,15,13,26.60
2017,09,28,15,14,26.60
2017,09,28,15,15,26.60
2017,09,28,15,16,26.60
2017,09,28,15,17,26.70
2017,09,28,15,18,26.70
2017,09,28,15,19,26.70
2017,09,28,15,20,26.70
2017,09,28,15,21,26.80
2017,09,28,15,22,26.80
2017,09,28,15,23,26.90
2017,09,28,15,24,26.90
2017,09,28,15,25,26.90
2017,09,28,15,26,26.90
2017,09,28,15,27,26.80
2017,09,28,15,28,26.80
2017,09,28,15,29,26.80
2017,09,28,15,30,26.80
2017,09,28,15,31,26.80
2017,09,28,15,32,26.80
2017,09,28,15,33,26.80
2017,09,28,15,34,26.80
2017,09,28,15,35,26.70
2017,09,28,15,36,26.70
2017,09,28,15,37,26.70
2017,09,28,15,38,26.70
2017,09,28,15,39,26.70
2017,09,28,15,40,26.60
2017,09,28,15,41,26.60
2017,09,28,15,42,26.60
2017,09,28,15,43,26.70
2017,09,28,15,44,26.70
2017,09,28,15,45,26.70
2017,09,28,15,46,26.70
2017,09,28,15,47,26.80
2017,09,28,15,48,26.80
2017,09,28,15,49,26.80
2017,09,28,15,50,26.60
2017,09,28,15,51,26.10
2017,09,28,15,52,25.70
2017,09,28,15,53,25.30
2017,09,28,15,54,25.00
2017,09,28,15,55,24.80
2017,09,28,15,56,24.60
2017,09,28,15,57,24.50
2017,09,28,15,58,24.30
2017,09,28,15,59,24.10
2017,09,28,16,00,24.00
2017,09,28,16,01,23.80
2017,09,28,16,02,23.70
2017,09,28,16,03,23.50
2017,09,28,16,04,23.30
2017,09,28,16,05,23.10
2017,09,28,16,06,22.90
2017,09,28,16,07,22.80
2017,09,28,16,08,22.80
2017,09,28,16,09,22.70
2017,09,28,16,10,22.60
2017,09,28,16,11,22.60
2017,09,28,16,12,22.60
2017,09,28,16,13,22.50
2017,09,28,16,14,22.40
2017,09,28,16,15,22.30
2017,09,28,16,16,22.20
2017,09,28,16,17,22.10
2017,09,28,16,18,22.10
2017,09,28,16,19,22.10
2017,09,28,16,20,22.10
2017,09,28,16,21,22.10
2017,09,28,16,22,22.10
2017,09,28,16,23,22.00
2017,09,28,16,24,22.00
2017,09,28,16,25,21.90
2017,09,28,16,26,21.80
2017,09,28,16,27,21.80
2017,09,28,16,28,21.70
2017,09,28,16,29,21.60
2017,09,28,16,30,21.60
2017,09,28,16,31,21.50
2017,09,28,16,32,21.40
2017,09,28,16,33,21.40
2017,09,28,16,34,21.30
2017,09,28,16,35,21.30
2017,09,28,16,36,21.30
2017,09,28,16,37,21.30
2017,09,28,16,38,21.30
2017,09,28,16,39,21.30
2017,09,28,16,40,21.30
2017,09,28,16,41,21.30
2017,09,28,16,42,21.30
2017,09,28,16,43,21.30
2017,09,28,16,44,21.30
2017,09,28,16,45,21.30
2017,09,28,16,46,21.30
2017,09,28,16,47,21.30
2017,09,28,16,48,21.30
2017,09,28,16,49,21.30
2017,09,28,16,50,21.30
2017,09,28,16,51,21.30
2017,09,28,16,52,21.30
2017,09,28,16,53,21.30
2017,09,28,16,54,21.30
2017,09,28,16,55,21.30
2017,09,28,16,56,21.30
2017,09,28,16,57,21.30
2017,09,28,16,58,21.30
2017,09,28,16,59,21.30
2017,09,28,17,00,21.30
2017,09,28,17,01,21.40
2017,09,28,17,02,21.40
2017,09,28,17,03,21.50
2017,09,28,17,04,21.60
2017,09,28,17,05,21.60
2017,09,28,17,06,21.60
2017,09,28,17,07,21.60
2017,09,28,17,08,21.60
2017,09,28,17,09,21.70
2017,09,28,17,10,21.70
2017,09,28,17,11,21.70
2017,09,28,17,12,21.60
2017,09,28,17,13,21.70
2017,09,28,17,14,21.70
2017,09,28,17,15,21.80
2017,09,28,17,16,21.90
2017,09,28,17,17,21.90
2017,09,28,17,18,21.90
2017,09,28,17,19,22.00